| time (UTC) | temp F | wind direction | speed MPH | gust MPH | rain 1hr in | rain 24hr in | rain mn in | humidity % | barometer mb |
| 20260505181502 | 81 | 277 | 4.0 | 22.0 | 0.00 | 0.00 | 0.00 | 35 | 1005.4 |
| 20260505174504 | 81 | 240 | 5.0 | 18.0 | 0.00 | 0.00 | 0.00 | 36 | 1005.6 |
| 20260505173103 | 81 | 190 | 5.0 | 10.0 | 0.00 | 0.00 | 0.00 | 39 | 1005.7 |
| 20260505171506 | 80 | 44 | 2.0 | 15.0 | 0.00 | 0.00 | 0.00 | 40 | 1005.6 |
| 20260505170114 | 81 | 201 | 5.0 | 15.0 | 0.00 | 0.00 | 0.00 | 39 | 1005.9 |
| 20260505164502 | 80 | 195 | 6.0 | 11.0 | 0.00 | 0.00 | 0.00 | 40 | 1006.0 |
| 20260505163111 | 80 | 210 | 2.0 | 15.0 | 0.00 | 0.00 | 0.00 | 45 | 1006.1 |
| 20260505161502 | 79 | 190 | 4.0 | 11.0 | 0.00 | 0.00 | 0.00 | 41 | 1006.1 |
| 20260505160104 | 79 | 43 | 2.0 | 8.0 | 0.00 | 0.00 | 0.00 | 43 | 1006.3 |
| 20260505153111 | 78 | 232 | 2.0 | 10.0 | 0.00 | 0.00 | 0.00 | 44 | 1006.6 |
| 20260505151502 | 76 | 227 | 2.0 | 7.0 | 0.00 | 0.00 | 0.00 | 50 | 1006.6 |
| 20260505150116 | 75 | 33 | 1.0 | 6.0 | 0.00 | 0.00 | 0.00 | 46 | 1006.8 |
| 20260505124608 | 64 | 232 | 1.0 | 7.0 | 0.00 | 0.00 | 0.00 | 63 | 1007.8 |
| 20260505123002 | 63 | 9 | 1.0 | 6.0 | 0.00 | 0.00 | 0.00 | 64 | 1007.8 |
| 20260505121602 | 62 | 198 | 1.0 | 8.0 | 0.00 | 0.00 | 0.00 | 65 | 1007.5 |
| 20260505120003 | 61 | 203 | 3.0 | 7.0 | 0.00 | 0.00 | 0.00 | 67 | 1007.6 |
| 20260505114606 | 60 | 217 | 2.0 | 5.0 | 0.00 | 0.00 | 0.00 | 70 | 1007.5 |
| 20260505113006 | 58 | 192 | 1.0 | 3.0 | 0.00 | 0.00 | 0.00 | 74 | 1007.5 |
| 20260505111604 | 54 | 201 | 0.0 | 2.0 | 0.00 | 0.00 | 0.00 | 84 | 1007.2 |
| 20260505101602 | 53 | 201 | 1.0 | 2.0 | 0.00 | 0.00 | 0.00 | 81 | 1007.1 |
| 20260505100003 | 53 | 201 | 0.0 | 0.0 | 0.00 | 0.00 | 0.00 | 79 | 1006.9 |
| 20260505094611 | 54 | 201 | 0.0 | 0.0 | 0.00 | 0.00 | 0.00 | 78 | 1006.8 |
| 20260505093003 | 54 | 201 | 0.0 | 2.0 | 0.00 | 0.00 | 0.00 | 76 | 1006.8 |
| 20260505091603 | 55 | 201 | 0.0 | 0.0 | 0.00 | 0.00 | 0.00 | 74 | 1006.8 |
| 20260505090004 | 57 | 201 | 0.0 | 0.0 | 0.00 | 0.00 | 0.00 | 72 | 1006.6 |
| 20260505084503 | 57 | 201 | 0.0 | 2.0 | 0.00 | 0.00 | 0.00 | 71 | 1006.4 |
| 20260505083110 | 57 | 218 | 0.0 | 1.0 | 0.00 | 0.00 | 0.00 | 69 | 1006.5 |
| 20260505081504 | 60 | 218 | 0.0 | 1.0 | 0.00 | 0.00 | 0.00 | 66 | 1006.4 |
| 20260505080104 | 60 | 203 | 1.0 | 4.0 | 0.00 | 0.00 | 0.00 | 64 | 1006.5 |
| 20260505074503 | 60 | 209 | 0.0 | 4.0 | 0.00 | 0.00 | 0.00 | 66 | 1006.5 |
| 20260505073102 | 58 | 317 | 0.0 | 2.0 | 0.00 | 0.00 | 0.00 | 68 | 1006.6 |
| 20260505071502 | 58 | 208 | 0.0 | 0.0 | 0.00 | 0.00 | 0.00 | 67 | 1006.6 |
| 20260505064502 | 60 | 208 | 0.0 | 2.0 | 0.00 | 0.00 | 0.00 | 62 | 1006.6 |
| 20260505063105 | 60 | 202 | 0.0 | 3.0 | 0.00 | 0.00 | 0.00 | 62 | 1006.6 |
| 20260505061505 | 60 | 201 | 0.0 | 2.0 | 0.00 | 0.00 | 0.00 | 61 | 1006.5 |
| 20260505060105 | 60 | 207 | 1.0 | 2.0 | 0.00 | 0.00 | 0.00 | 59 | 1006.6 |
| 20260505054502 | 61 | 213 | 1.0 | 3.0 | 0.00 | 0.00 | 0.00 | 58 | 1006.4 |
| 20260505053107 | 61 | 196 | 1.0 | 5.0 | 0.00 | 0.00 | 0.00 | 57 | 1006.4 |
| 20260505051503 | 61 | 192 | 1.0 | 4.0 | 0.00 | 0.00 | 0.00 | 56 | 1006.5 |
| 20260505050128 | 61 | 200 | 2.0 | 4.0 | 0.00 | 0.00 | 0.00 | 56 | 1006.6 |
| 20260505041611 | 62 | 200 | 2.0 | 5.0 | 0.00 | 0.00 | 0.00 | 53 | 1006.5 |
| 20260505040002 | 62 | 196 | 2.0 | 7.0 | 0.00 | 0.00 | 0.00 | 52 | 1006.3 |
| 20260505034603 | 62 | 181 | 2.0 | 6.0 | 0.00 | 0.00 | 0.00 | 51 | 1006.4 |
| 20260505033003 | 61 | 192 | 2.0 | 4.0 | 0.00 | 0.00 | 0.00 | 52 | 1006.4 |
| 20260505031602 | 62 | 193 | 0.0 | 2.0 | 0.00 | 0.00 | 0.00 | 52 | 1006.5 |
| 20260505030002 | 61 | 188 | 0.0 | 3.0 | 0.00 | 0.00 | 0.00 | 52 | 1006.4 |
| 20260505024603 | 61 | 184 | 0.0 | 2.0 | 0.00 | 0.00 | 0.00 | 52 | 1006.6 |
| 20260505023002 | 62 | 174 | 0.0 | 2.0 | 0.00 | 0.00 | 0.00 | 51 | 1006.7 |
| 20260505021602 | 62 | 185 | 0.0 | 3.0 | 0.00 | 0.00 | 0.00 | 50 | 1006.7 |
| 20260505020004 | 63 | 198 | 0.0 | 3.0 | 0.00 | 0.00 | 0.00 | 49 | 1006.7 |
| 20260505014631 | 62 | 198 | 2.0 | 6.0 | 0.00 | 0.00 | 0.00 | 49 | 1006.7 |
| 20260505013002 | 61 | 200 | 0.0 | 2.0 | 0.00 | 0.00 | 0.00 | 52 | 1006.6 |
| 20260505011607 | 61 | 197 | 0.0 | 2.0 | 0.00 | 0.00 | 0.00 | 53 | 1006.6 |
| 20260505010002 | 62 | 197 | 0.0 | 0.0 | 0.00 | 0.00 | 0.00 | 51 | 1006.3 |
| 20260505004603 | 63 | 197 | 0.0 | 0.0 | 0.00 | 0.00 | 0.00 | 48 | 1006.2 |
| 20260505003003 | 65 | 197 | 0.0 | 2.0 | 0.00 | 0.00 | 0.00 | 46 | 1006.0 |
| 20260505001633 | 67 | 205 | 0.0 | 2.0 | 0.00 | 0.00 | 0.00 | 43 | 1006.0 |
| 20260505000003 | 68 | 210 | 1.0 | 7.0 | 0.00 | 0.00 | 0.00 | 41 | 1005.9 |
| 20260504234615 | 68 | 221 | 3.0 | 9.0 | 0.00 | 0.00 | 0.00 | 40 | 1005.9 |
| 20260504233002 | 69 | 207 | 2.0 | 9.0 | 0.00 | 0.00 | 0.00 | 39 | 1005.7 |
| 20260504231602 | 70 | 203 | 3.0 | 9.0 | 0.00 | 0.00 | 0.00 | 38 | 1005.6 |
| 20260504230002 | 70 | 209 | 3.0 | 13.0 | 0.00 | 0.00 | 0.00 | 37 | 1005.6 |
| 20260504224611 | 71 | 191 | 4.0 | 9.0 | 0.00 | 0.00 | 0.00 | 37 | 1005.6 |
| 20260504223002 | 71 | 194 | 5.0 | 10.0 | 0.00 | 0.00 | 0.00 | 37 | 1005.6 |
| 20260504221603 | 71 | 212 | 3.0 | 10.0 | 0.00 | 0.00 | 0.00 | 38 | 1005.7 |
| 20260504220044 | 72 | 234 | 1.0 | 8.0 | 0.00 | 0.00 | 0.00 | 37 | 1005.8 |
| 20260504214502 | 71 | 194 | 2.0 | 10.0 | 0.00 | 0.00 | 0.00 | 37 | 1005.8 |
| 20260504213148 | 71 | 219 | 4.0 | 10.0 | 0.00 | 0.00 | 0.00 | 37 | 1005.8 |
| 20260504211508 | 72 | 202 | 3.0 | 11.0 | 0.00 | 0.00 | 0.00 | 38 | 1005.9 |
| 20260504204502 | 72 | 194 | 2.0 | 11.0 | 0.00 | 0.00 | 0.00 | 39 | 1005.9 |
| 20260504203123 | 72 | 206 | 2.0 | 11.0 | 0.00 | 0.00 | 0.00 | 37 | 1005.9 |
| 20260504201504 | 73 | 281 | 2.0 | 12.0 | 0.00 | 0.00 | 0.00 | 37 | 1006.1 |
| 20260504194502 | 72 | 178 | 3.0 | 12.0 | 0.00 | 0.00 | 0.00 | 38 | 1006.3 |
| 20260504193112 | 71 | 241 | 4.0 | 12.0 | 0.00 | 0.00 | 0.00 | 36 | 1006.4 |
| 20260504191502 | 71 | 301 | 3.0 | 10.0 | 0.00 | 0.00 | 0.00 | 38 | 1006.5 |
| 20260504190120 | 71 | 284 | 3.0 | 13.0 | 0.00 | 0.00 | 0.00 | 39 | 1006.8 |
| 20260504184504 | 70 | 175 | 3.0 | 15.0 | 0.00 | 0.00 | 0.00 | 36 | 1006.9 |
| 20260504183101 | 70 | 189 | 5.0 | 14.0 | 0.00 | 0.00 | 0.00 | 37 | 1007.1 |